Flag for U.S.A. Weather past 2 weeks in Hialeah, Florida, U.S.A.

Now
88 °F

Scattered clouds.


Feels Like: 96 °F
Forecast: 78 / 89 °F
Wind: 9 mph from South

Location: Opa Locka Airport

Current Time: Aug 3, 2015 at 11:35:04 AM

Latest Report: Aug 3, 2015 at 10:53 AM


Visibility: 10 mi

Pressure: 30.02 "Hg

Humidity: 61%

Dew point: 73 °F

Location of HialeahLocation

Historic Weather in Hialeah — Graph

°F

Hialeah temperature yesterday

Maximum temperature yesterday: 91 °F (at 2:53 PM)
Minimum temperature yesterday: 78 °F (at 7:53 PM)
Average temperature yesterday: 83 °F

Past Weeks' High & Low Weather Summary

 TemperatureHumidityPressure
High94 °F (Jul 28, 1:53 PM)100% (Jul 22, 4:53 AM)30.08 "Hg (Jul 22, 4:53 AM)
Low75 °F (Jul 22, 4:53 AM)44% (Jul 28, 3:53 PM)29.89 "Hg (Jul 26, 4:53 AM)
Average83 °F74%30.00 "Hg
* Reported Jul 19 9:53 AM — Aug 3 9:53 AM, Hialeah, Weather by CustomWeather, © 2015

Note: Actual official high and low records may vary slightly from our data, if they occured in-between our weather recording intervals... More about our weather records

Advertising

Hialeah weather history for previous 24 hours

 ConditionsComfort  
Time TempWeatherWind HumidityBarometerVisibility
9:53 AM
Mon, Aug 3
85 °FScattered clouds.12 mph70%30.01 "Hg10 mi
8:53 AM85 °FPassing clouds.13 mph72%29.99 "Hg10 mi
7:53 AM81 °FSunny.5 mph85%29.98 "Hg10 mi
6:53 AM78 °FClear.No wind90%29.95 "Hg10 mi
5:53 AM79 °FClear.3 mph88%29.94 "Hg10 mi
4:53 AM78 °FPassing clouds.No wind87%29.93 "Hg10 mi
3:53 AM78 °FClear.3 mph87%29.95 "Hg10 mi
2:53 AM77 °FClear.No wind88%29.96 "Hg10 mi
1:53 AM78 °FClear.No wind87%29.98 "Hg10 mi
12:53 AM78 °FClear.3 mph82%29.99 "Hg10 mi
11:53 PM
Sun, Aug 2
79 °FClear.No wind79%30.01 "Hg10 mi
10:53 PM78 °FClear.3 mph84%30.00 "Hg10 mi
9:53 PM78 °FClear.No wind84%29.98 "Hg10 mi
8:53 PM79 °FPassing clouds.No wind77%29.98 "Hg10 mi
7:53 PM78 °FSunny.6 mph76%29.98 "Hg10 mi
7:01 PM81 °FScattered clouds.10 mph67%29.98 "Hg10 mi
5:53 PM85 °FScattered clouds.10 mph61%29.97 "Hg10 mi
4:53 PM83 °FPassing clouds.9 mph63%29.96 "Hg10 mi
3:53 PM91 °FSunny.10 mph56%29.95 "Hg10 mi
2:53 PM91 °FPassing clouds.6 mph54%29.97 "Hg10 mi
1:53 PM84 °FThundershowers. Broken clouds.7 mph59%29.98 "Hg10 mi
12:53 PM89 °FSunny.15 mph61%29.99 "Hg10 mi
11:53 AM90 °FScattered clouds.12 mph59%29.99 "Hg10 mi
Weather by CustomWeather, © 2015

See weather overviewHow to use our weather pages